Hayward, WI

7:39 AM CDT on April 25, 2018 (GMT -0500)
Sawyer County

Weather History for KHYR - November, 2010

Change the Weather History Date:

Wednesday, November 17, 2010

  Actual Average Record
Temperature  
Mean Temperature 30 °F -  
Max Temperature 34 °F 39 °F 64 °F (2001)
Min Temperature 26 °F 22 °F -2 °F (2005)
Degree Days  
Heating Degree Days 35    
Moisture  
Dew Point 27 °F    
Average Humidity 85    
Maximum Humidity 96    
Minimum Humidity 70    
Precipitation  
Precipitation 0.00 in - - ()
Sea Level Pressure  
Sea Level Pressure 30.08 in    
Wind  
Wind Speed 2 mph (NNW)    
Max Wind Speed 9 mph    
Max Gust Speed -    
Visibility 10 miles    
Events      
Averages and records for this station are not official NWS values.
T = Trace of Precipitation, MM = Missing Value Source: NWS Daily Summary

Daily Weather History Graph

Daily Weather History Graph

Search for Another Location

Airport or City:

Astronomy

Nov. 17, 2010 Rise Set
Actual Time 7:09 AM CST 4:31 PM CST
Civil Twilight 6:36 AM CST 5:04 PM CST
Nautical Twilight 6:00 AM CST 5:40 PM CST
Astronomical Twilight 5:24 AM CST 6:16 PM CST
Moon 2:12 PM CST (11/17) 2:57 AM CST (11/17)
Length of Visible Light 10h 28m
Length of Day
9h 22m
Waxing Gibbous, 85% of the Moon is Illuminated
Nov 17
Waxing Gibbous
Nov 21
Full
Nov 28
Last Quarter
Dec 5
New
Dec 13
First Quarter

Hourly Weather History & Observations

Time (CST) Temp. Windchill Dew Point Humidity Pressure Visibility Wind Dir Wind Speed Gust Speed Precip Events Conditions
12:11 AM 32.0 °F - 30.2 °F 93% 29.81 in 6.0 mi Calm Calm - N/A   Overcast
12:53 AM 32.0 °F - 30.0 °F 92% 29.88 in 8.0 mi Calm Calm - N/A   Overcast
1:06 AM 32.0 °F - 30.2 °F 93% 29.84 in 8.0 mi Calm Calm - N/A   Overcast
1:53 AM 32.0 °F - 30.0 °F 92% 29.89 in 8.0 mi Calm Calm - N/A   Overcast
2:49 AM 30.2 °F - 28.4 °F 93% 29.88 in 8.0 mi Calm Calm - N/A   Mostly Cloudy
2:53 AM 30.0 °F - 28.0 °F 92% 29.93 in 8.0 mi Calm Calm - N/A   Scattered Clouds
3:20 AM 30.2 °F - 28.4 °F 93% 29.89 in 7.0 mi Calm Calm - N/A   Scattered Clouds
3:31 AM 30.2 °F 26.7 °F 28.4 °F 93% 29.89 in 8.0 mi Variable 3.5 mph - N/A   Mostly Cloudy
3:53 AM 30.0 °F 26.5 °F 28.9 °F 96% 29.95 in 8.0 mi Variable 3.5 mph - N/A   Overcast
4:53 AM 30.9 °F 27.5 °F 28.9 °F 92% 29.97 in 10.0 mi North 3.5 mph - N/A   Overcast
5:20 AM 30.2 °F 26.7 °F 28.4 °F 93% 29.94 in 10.0 mi Variable 3.5 mph - N/A   Overcast
5:31 AM 32.0 °F 28.7 °F 28.4 °F 87% 29.95 in 10.0 mi North 3.5 mph - N/A   Overcast
5:39 AM 32.0 °F 28.7 °F 28.4 °F 87% 29.95 in 10.0 mi Variable 3.5 mph - N/A   Overcast
5:53 AM 30.9 °F 27.5 °F 28.0 °F 89% 30.01 in 10.0 mi Variable 3.5 mph - N/A   Mostly Cloudy
6:06 AM 30.2 °F 25.4 °F 28.4 °F 93% 29.96 in 10.0 mi Variable 4.6 mph - N/A   Mostly Cloudy
6:53 AM 30.9 °F 27.5 °F 28.0 °F 89% 30.04 in 10.0 mi Variable 3.5 mph - N/A   Mostly Cloudy
7:10 AM 30.2 °F 26.7 °F 28.4 °F 93% 30.00 in 10.0 mi Variable 3.5 mph - N/A   Mostly Cloudy
7:18 AM 28.4 °F 24.6 °F 26.6 °F 93% 30.00 in 10.0 mi NNW 3.5 mph - N/A   Scattered Clouds
7:53 AM 28.9 °F 25.2 °F 27.0 °F 92% 30.07 in 10.0 mi NW 3.5 mph - N/A   Scattered Clouds
8:53 AM 30.0 °F - 26.1 °F 85% 30.10 in 10.0 mi Calm Calm - N/A   Clear
9:53 AM 32.0 °F 27.5 °F 27.0 °F 82% 30.12 in 10.0 mi Variable 4.6 mph - N/A   Scattered Clouds
10:02 AM 32.0 °F 27.5 °F 26.6 °F 80% 30.08 in 10.0 mi Variable 4.6 mph - N/A   Mostly Cloudy
10:13 AM 32.0 °F 26.4 °F 26.6 °F 80% 30.08 in 10.0 mi Variable 5.8 mph - N/A   Scattered Clouds
10:50 AM 33.8 °F 27.7 °F 26.6 °F 75% 30.10 in 10.0 mi Variable 6.9 mph - N/A   Mostly Cloudy
10:53 AM 33.1 °F 28.7 °F 26.1 °F 75% 30.15 in 10.0 mi Variable 4.6 mph - N/A   Mostly Cloudy
11:53 AM 33.1 °F 28.7 °F 25.0 °F 72% 30.14 in 10.0 mi Variable 4.6 mph - N/A   Mostly Cloudy
12:53 PM 33.1 °F 30.0 °F 25.0 °F 72% 30.15 in 10.0 mi Variable 3.5 mph - N/A   Overcast
1:53 PM 34.0 °F 31.0 °F 25.0 °F 70% 30.15 in 10.0 mi Variable 3.5 mph - N/A   Overcast
2:53 PM 33.1 °F 27.7 °F 26.1 °F 75% 30.18 in 10.0 mi Variable 5.8 mph - N/A   Overcast
3:53 PM 32.0 °F 27.5 °F 28.0 °F 85% 30.20 in 7.0 mi Variable 4.6 mph - N/A   Overcast
4:53 PM 32.0 °F - 28.0 °F 85% 30.21 in 10.0 mi Calm Calm - 0.00 in   Overcast
5:53 PM 32.0 °F - 28.0 °F 85% 30.22 in 10.0 mi Calm Calm - N/A   Overcast
6:15 PM 32.0 °F - 26.6 °F 80% 30.18 in 10.0 mi Calm Calm - N/A   Overcast
6:53 PM 30.9 °F 27.5 °F 27.0 °F 85% 30.24 in 10.0 mi Variable 3.5 mph - N/A   Overcast
7:37 PM 30.2 °F 23.4 °F 26.6 °F 86% 30.19 in 10.0 mi NW 6.9 mph - N/A   Overcast
7:53 PM 30.9 °F 25.2 °F 25.0 °F 79% 30.25 in 10.0 mi Variable 5.8 mph - N/A   Overcast
8:53 PM 30.0 °F 24.1 °F 25.0 °F 82% 30.27 in 10.0 mi NW 5.8 mph - N/A   Overcast
9:48 PM 28.4 °F 21.2 °F 23.0 °F 80% 30.22 in 10.0 mi Variable 6.9 mph - N/A   Overcast
9:53 PM 28.9 °F 20.4 °F 23.0 °F 78% 30.27 in 10.0 mi NW 9.2 mph - N/A   Overcast
10:25 PM 28.4 °F 23.3 °F 23.0 °F 80% 30.23 in 10.0 mi Variable 4.6 mph - N/A   Overcast
10:39 PM 28.4 °F 23.3 °F 21.2 °F 74% 30.23 in 10.0 mi Variable 4.6 mph - N/A   Overcast
10:53 PM 27.0 °F 23.0 °F 21.0 °F 78% 30.29 in 10.0 mi Variable 3.5 mph - N/A   Overcast
11:02 PM 26.6 °F 19.1 °F 21.2 °F 80% 30.24 in 10.0 mi Variable 6.9 mph - N/A   Overcast
11:53 PM 27.0 °F 19.5 °F 19.9 °F 75% 30.31 in 10.0 mi Variable 6.9 mph - N/A   Overcast